This demonstration page uses our WeatherBlox Daily Observations layout. Learn more.

Left ArrowRight Arrow

31.84235, -102.49876

Hourly Observations for November 29, 2015

Temp ( °F °C ) Dew Point ( °F °C ) Humidity (%) Winds ( mph kmh ) Pressure ( in mb ) Visibility ( mi km ) Precip ( " mm )
12:00 am 00:00 Cloudy with Light Rain 37 2.8 34 1.1 89 89 N 6 9 30.27 1025 6 10 0.00 0.03
12:53 am 00:53 Cloudy with Light Rain 37 2.8 34 1.1 89 89 NNE 8 13 30.19 1022 10 16 0.04 1.02
1:21 am 01:21 Cloudy with Light Rain 37 2.8 34 1.1 89 89 NE 7 11 30.24 1024 9 14 0.00 0.03
1:53 am 01:53 Cloudy with Light Rain 37 2.8 34 1.1 89 89 NNE 6 9 30.19 1022 7 11 0.01 0.25
2:53 am 02:53 Cloudy with Light Rain 37 2.8 34 1.1 89 89 ENE 5 7 30.18 1022 9 14 0.04 1.02
3:09 am 03:09 Cloudy with Light Rain 37 2.8 34 1.1 89 89 NE 9 15 30.21 1023 9 14 0.00 0.03
3:20 am 03:20 Cloudy 37 2.8 34 1.1 89 89 NE 9 15 30.21 1023 9 14 0.00 0.03
3:43 am 03:43 Cloudy 37 2.8 34 1.1 89 89 NNE 3 6 30.24 1024 10 16 0.00 0.03
3:51 am 03:51 Cloudy 37 3 34 1 87 87 ENE 5 7 30.21 1023 10 16 0.00 0.03
3:53 am 03:53 Cloudy 37 2.8 34 1.1 89 89 ENE 5 7 30.15 1021 10 16 0.00 0.03
4:39 am 04:39 Cloudy with Light Rain 37 2.8 34 1.1 89 89 Calm 30.24 1024 8 13 0.00 0.03
4:46 am 04:46 Cloudy with Light Rain 37 2.8 34 1.1 89 89 WNW 5 7 30.24 1024 6 10 0.00 0.03
4:53 am 04:53 Cloudy with Light Rain 37 2.8 33 0.6 86 86 W 3 6 30.19 1022 7 11 0.01 0.25
5:22 am 05:22 Cloudy with Light Rain 37 2.8 34 1.1 89 89 NE 7 11 30.21 1023 6 10 0.02 0.51
5:36 am 05:36 Cloudy with Light Rain 37 2.8 34 1.1 89 89 E 6 9 30.21 1023 10 16 0.02 0.51
5:53 am 05:53 Cloudy with Light Rain 37 2.8 34 1.1 89 89 E 6 9 30.14 1021 10 16 0.02 0.51
6:11 am 06:11 Cloudy with Light Rain 37 2.8 34 1.1 89 89 ENE 5 7 30.21 1023 6 10 0.01 0.25
6:23 am 06:23 Cloudy with Light Rain 37 2.8 34 1.1 89 89 NNE 5 7 30.21 1023 10 16 0.01 0.25
6:53 am 06:53 Cloudy 37 2.8 34 1.1 89 89 ENE 3 6 30.16 1022 10 16 0.01 0.25
7:24 am 07:24 Cloudy 37 2.8 34 1.1 89 89 ENE 3 6 30.24 1024 10 16 0.00 0.00
7:38 am 07:38 Cloudy 37 2.8 34 1.1 89 89 ENE 6 9 30.24 1024 10 16 0.00 0.00
7:46 am 07:46 Cloudy 37 2.8 34 1.1 89 89 NE 3 6 30.24 1024 10 16 0.00 0.00
7:53 am 07:53 Cloudy 37 2.8 35 1.7 93 93 N 5 7 30.19 1022 9 14 0.00 0.00
8:45 am 08:45 Cloudy with Mist and Fog 37 2.8 35 1.7 93 93 NE 7 11 30.27 1025 5 8 0.00 0.00
8:53 am 08:53 Cloudy with Mist and Fog 37 2.8 34 1.1 89 89 NE 7 11 30.20 1023 5 8 0.00 0.00
9:03 am 09:03 Cloudy with Mist and Fog 37 2.8 34 1.1 89 89 NE 6 9 30.27 1025 4 6 0.00 0.00
9:17 am 09:17 Cloudy with Mist and Fog 37 2.8 35 1.7 93 93 NE 7 11 30.27 1025 2 3 0.00 0.00
9:33 am 09:33 Cloudy with Mist and Fog 37 2.8 35 1.7 93 93 ENE 7 11 30.27 1025 2 3 0.00 0.00
9:48 am 09:48 Cloudy with Mist and Fog 37 3 36 2 93 93 E 7 11 30.27 1025 2 3 0.00 0.00
9:53 am 09:53 Cloudy with Mist and Fog 37 2.8 35 1.7 93 93 ENE 7 11 30.21 1023 2 2 0.00 0.00
10:09 am 10:09 Cloudy with Mist and Fog 37 2.8 35 1.7 93 93 ENE 7 11 30.27 1025 3 4 0.00 0.00
10:19 am 10:19 Cloudy with Mist and Fog 38 3.3 35 1.7 89 89 ENE 6 9 30.27 1025 4 6 0.00 0.00
10:27 am 10:27 Cloudy with Mist and Fog 38 3.3 35 1.7 89 89 NE 6 9 30.27 1025 4 6 0.00 0.00
10:53 am 10:53 Cloudy 38 3.3 35 1.7 89 89 ENE 3 6 30.19 1023 7 11 0.00 0.00
11:53 am 11:53 Cloudy 40 4.4 36 2.2 86 86 NE 5 7 30.15 1021 10 16 0.00 0.00
12:53 pm 12:53 Cloudy 41 5 36 2.2 82 82 Calm 30.12 1020 10 16 0.00 0.00
1:53 pm 13:53 Cloudy 43 6.1 37 2.8 80 80 Calm 30.08 1019 10 16 0.00 0.00
2:06 pm 14:06 Cloudy 44 6.7 38 3.3 79 79 Calm 30.12 1020 10 16 0.00 0.00
2:53 pm 14:53 Cloudy 44 6.7 38 3.3 79 79 ESE 3 6 30.06 1018 10 16 0.00 0.00
3:53 pm 15:53 Cloudy 44 6.7 39 3.9 83 83 E 7 11 30.04 1017 10 16 0.00 0.00
4:53 pm 16:53 undefined 44 6.7 39 3.9 83 83 N 3 6 30.04 1017 10 16 0.00 0.00
5:05 pm 17:05 Cloudy 44 6.7 39 3.9 83 83 Calm 30.09 1019 10 16 0.00 0.00
5:53 pm 17:53 Cloudy with Mist and Fog 43 6.1 39 3.9 86 86 SE 6 9 30.04 1017 6 10 0.00 0.00
6:53 pm 18:53 Cloudy with Mist and Fog 43 6.1 40 4.4 89 89 SSE 7 11 30.05 1018 6 10 0.00 0.00
7:15 pm 19:15 Cloudy with Mist and Fog 42 5.6 40 4.4 92 92 SSE 6 9 30.12 1020 3 4 0.00 0.00
7:32 pm 19:32 Cloudy with Mist and Fog 42 5.6 40 4.4 92 92 SE 7 11 30.12 1020 2 3 0.00 0.00
7:53 pm 19:53 Cloudy with Mist and Fog 42 5.6 40 4.4 92 92 ESE 6 9 30.03 1017 2 3 0.00 0.00
8:07 pm 20:07 Cloudy with Mist and Fog 42 5.6 40 4.4 92 92 SE 9 15 30.12 1020 2 2 0.00 0.00
8:53 pm 20:53 Cloudy with Mist and Fog 41 5 40 4.4 96 96 SSE 8 13 30.03 1017 2 3 0.00 0.00
9:36 pm 21:36 Cloudy with Mist and Fog 41 5 40 4.4 96 96 SE 6 9 30.12 1020 2 3 0.00 0.00
9:43 pm 21:43 Cloudy with Mist and Fog 42 5.6 40 4.4 92 92 S 3 6 30.12 1020 2 2 0.00 0.00
9:53 pm 21:53 Cloudy with Mist and Fog 41 5 40 4.4 96 96 SE 5 7 30.04 1017 1 2 0.00 0.00
10:53 pm 22:53 Cloudy with Mist and Fog 42 5.6 40 4.4 92 92 SE 5 7 30.02 1017 1 2 0.00 0.00
11:53 pm 23:53 Cloudy with Mist and Fog 42 5.6 40 4.4 92 92 SSE 6 9 30.01 1016 1 1 0.00 0.00

Powered by AerisWeather